Location: Cahas Mountain Overlook
(37.0833°N, 80.1000°W)
Time: 19:59:50
(UTC-04:00)

Tiros 1 - Pass Details

Date: 13 February 2026
Orbit: 618 x 649 km, 48.4° (Epoch: 13 March)

Event Time Altitude Azimuth Distance (km) Brightness Sun altitude
Rises 18:17:38 0° 287° (WNW) 2,884 11.7 -4.5°
Reaches altitude 10° 18:20:56 10° 262° (W) 1,978 11.6 -5.2°
Maximum altitude 18:23:16 14° 230° (SW) 1,730 10.5 -5.6°
Drops below altitude 10° 18:25:36 10° 199° (SSW) 1,979 10.1 -6.1°
Sets 18:28:55 0° 174° (S) 2,887 10.6 -6.7°
